MST,Max TemperatureF,Mean TemperatureF,Min TemperatureF,Max Dew PointF,MeanDew PointF,Min DewpointF,Max Humidity, Mean Humidity, Min Humidity, Max Sea Level PressureIn, Mean Sea Level PressureIn, Min Sea Level PressureIn, Max VisibilityMiles, Mean VisibilityMiles, Min VisibilityMiles, Max Wind SpeedMPH, Mean Wind SpeedMPH, Max Gust SpeedMPH,PrecipitationIn, CloudCover, Events, WindDirDegrees
2013-2-1,39,24,8,27,18,7,100,83,61,30.42,30.29,30.26,10,8,0,8,0,,0.00,1,Fog,116
2013-2-2,33,19,5,23,14,1,93,82,60,30.51,30.43,30.34,10,8,0,5,0,,0.00,0,Fog,124
2013-2-3,37,24,12,21,15,9,93,77,45,30.34,30.21,30.11,10,10,7,8,0,,0.00,0,,124
2013-2-4,39,21,3,21,13,1,92,75,45,30.24,30.18,30.12,10,9,4,6,1,,0.00,1,,116
2013-2-5,41,26,12,28,18,9,93,74,49,30.18,30.04,29.89,10,10,7,7,1,,0.00,3,,109
2013-2-6,44,30,14,27,21,10,86,66,36,30.17,30.01,29.88,10,9,5,12,2,,0.00,2,,185
2013-2-7,37,22,6,18,13,5,93,66,36,30.19,30.06,29.92,10,10,3,6,1,,0.00,0,,128
2013-2-8,41,32,23,30,22,14,100,76,45,29.92,29.74,29.62,10,8,0,29,3,34,0.00,6,Snow,215
2013-2-9,32,23,14,25,20,12,100,83,60,29.79,29.67,29.64,10,8,1,13,3,,0.00,6,Snow,237
2013-2-10,32,21,10,21,17,9,93,78,55,29.95,29.85,29.79,10,9,0,9,3,,0.00,6,Snow,241
2013-2-11,30,16,3,18,10,0,93,76,47,30.18,30.05,29.96,10,8,2,13,2,,0.00,3,Snow,150
2013-2-12,32,16,0,19,9,-4,92,76,48,30.32,30.26,30.18,10,9,5,12,1,,0.00,6,Snow,223
2013-2-13,37,26,14,23,20,12,93,77,56,30.32,30.26,30.19,10,10,7,12,1,,0.00,5,Snow,226
2013-2-14,41,28,14,28,22,10,100,79,57,30.40,30.28,30.20,10,8,1,14,3,,0.00,3,Snow,218
2013-2-15,39,22,6,23,15,5,93,78,49,30.51,30.45,30.40,10,9,1,10,2,,0.00,0,,171
2013-2-16,42,24,5,23,14,3,93,71,39,30.47,30.28,30.04,10,9,0,6,1,,0.00,0,Fog,111
2013-2-17,44,30,17,23,16,12,86,64,34,30.04,29.90,29.80,10,10,10,22,4,33,0.00,2,,35
2013-2-18,35,20,6,18,11,3,92,69,41,30.13,30.05,29.95,10,10,10,5,0,,0.00,0,,122
2013-2-19,46,30,15,18,12,9,86,52,25,29.94,29.75,29.60,10,10,10,16,2,22,0.00,1,,156
2013-2-20,42,34,26,30,23,14,100,70,39,29.70,29.61,29.56,10,9,1,14,2,,0.00,7,Snow,174
2013-2-21,35,28,21,28,21,12,93,73,55,29.97,29.85,29.70,10,8,2,14,3,,0.00,7,Snow,232
2013-2-22,35,24,14,19,15,10,93,73,48,30.07,30.03,29.98,10,9,2,15,2,18,0.00,4,Snow,230
2013-2-23,32,24,15,28,17,10,93,78,41,30.02,29.84,29.71,10,8,0,18,3,29,0.00,7,Snow,209
2013-2-24,32,20,8,18,13,5,93,69,47,30.21,30.04,29.90,10,10,7,24,5,29,0.00,2,,50
2013-2-25,33,16,0,19,9,-4,92,68,34,30.22,30.09,29.93,10,10,10,10,2,,0.00,2,,110
2013-2-26,33,22,12,19,13,7,86,67,35,30.27,30.09,29.97,10,10,10,18,4,28,0.00,4,Snow,29
2013-2-27,33,17,1,16,7,0,92,67,38,30.40,30.34,30.27,10,10,10,13,2,,0.00,0,,157
2013-2-28,41,22,3,25,12,0,92,66,31,30.45,30.41,30.38,10,10,10,5,1,,0.00,5,,88